[[{"header":{"parameterUnit":"m.s-1","parameterCategory":1,"la1":30.2991,"la2":30.254,"lo1":-89.0895,"lo2":-89.0444,"dy":0.0017,"dx":0.0017,"nx":28,"ny":28,"refTime":"2024-07-22T21:00:00:Z","depth":0,"parameterNumber":2,"parameterNumberName":"U-component_of_WINDS"},"data":[0,0,0,0,0,0,0,0,0,0,0,0,0,0,0,0,0,0,0,0,0,0,0,0,0,0,0,0,0,0,0,0,0,0,0,0,0,0,0,0,0,0,0,0,0,0,0,0,0,0,0,0,0,0,0,0,0,0,1.9168,1.9169,0,1.9339,1.9341,1.9343,1.9392,1.9391,1.939,1.9389,1.9566,1.9571,1.9577,0,0,0,0,0,0,0,0,0,0,0,0,0,1.888,1.8885,1.9167,1.917,1.9172,1.9339,1.9341,1.9344,1.9392,1.9391,1.939,1.9389,1.9564,1.957,1.9577,0,0,0,0,0,0,0,0,0,0,0,0,0,1.9023,1.8887,1.9167,1.9216,1.9222,1.9338,1.9341,1.9344,1.9392,1.9391,1.9389,1.9388,1.9562,1.957,1.9578,1.9658,0,0,1.9604,1.9607,0,0,0,0,0,0,0,0,1.9015,1.9034,1.9207,1.9213,1.922,1.9343,1.9305,1.945,1.9393,1.9328,1.9389,1.9387,1.9493,1.9507,1.9542,1.9667,1.9674,1.9604,1.9609,1.9613,1.9615,0,0,0,0,0,0,0,1.9005,1.9027,1.9235,1.9209,1.9217,1.9229,1.9248,1.9332,1.9416,1.9333,1.9337,1.9357,1.9496,1.9534,1.9546,1.9677,1.9604,1.9612,1.9617,1.962,1.9873,1.9874,0,0,0,0,0,0,1.8987,1.9018,1.923,1.9241,1.9112,1.9235,1.9256,1.9305,1.9415,1.9431,1.9358,1.9358,1.952,1.9537,1.9553,1.9652,1.9613,1.9621,1.9626,1.9871,1.9873,1.9875,0,0,0,0,0,0,1.8981,1.9005,1.9223,1.9131,1.9159,1.9242,1.9296,1.9309,1.9347,1.9434,1.9449,1.9381,1.952,1.9541,1.9631,1.9659,1.9625,1.9632,1.9869,1.9872,1.9874,1.9852,0,0,0,0,0,0,1.8972,1.9003,1.9035,1.9131,1.9164,1.9299,1.9297,1.9313,1.9361,1.9363,1.946,1.9474,1.952,1.9618,1.9639,1.967,1.9639,1.9867,1.987,1.9873,1.985,1.9853,1.9856,0,0,0,0,0,1.8962,1.9022,1.9036,1.9061,1.9205,1.93,1.9319,1.937,1.9363,1.9395,1.9451,1.9471,1.9652,1.9627,1.9651,1.9684,1.9865,1.9869,1.9873,1.9849,1.9853,1.9856,0,0,0,0,0,0,1.8928,1.9036,1.9052,1.9146,1.9213,1.9308,1.935,1.9373,1.9444,1.9443,1.9504,1.9525,1.961,1.9657,1.9626,1.9766,1.9759,1.9768,1.9733,1.9737,1.974,1.9726,1.9646,0,0,0,0,0,1.8931,1.8999,1.909,1.9164,1.9197,1.9267,1.9311,1.9344,1.9417,1.9446,1.9508,1.9577,1.965,1.9696,1.9768,1.9857,1.9878,1.9892,1.9895,1.9896,1.9903,1.9951,1.9958,1.9887,1.9887,1.9887,0,0,1.8939,1.9006,1.9046,1.9159,1.9215,1.9283,1.9291,1.9364,1.9415,1.9457,1.9545,1.9593,1.9674,1.9763,1.9806,1.9804,1.9927,1.9901,1.9902,1.9908,1.9956,1.9962,1.9968,1.989,1.9889,1.9889,0,0,1.8988,1.9046,1.9113,1.9169,1.9253,1.9299,1.9315,1.9406,1.9439,1.9529,1.9561,1.9622,1.9746,1.9802,1.9847,1.9913,1.9934,1.9935,1.9949,1.9995,2.0001,2.0006,2.0028,2.0035,1.9942,1.9942,1.9942,0,1.8987,1.9091,1.9144,1.9215,1.9262,1.9303,1.9369,1.9421,1.9525,1.9556,1.9554,1.9708,1.9766,1.9867,1.9883,1.9919,1.9938,1.9924,1.9995,2.0001,2.0007,2.0028,2.0037,1.9941,1.9941,1.9941,1.9941,0,1.9084,1.9156,1.92,1.9297,1.935,1.9419,1.9481,1.9528,1.9557,1.9603,1.9692,1.9762,1.9847,1.9874,1.9904,1.998,1.9976,1.9984,1.9977,2.0012,2.0033,2.0042,1.994,1.994,1.9941,1.9941,0,0,1.9117,1.9242,1.9257,1.9301,1.9396,1.9452,1.9521,1.9604,1.9642,1.9712,1.977,1.9873,1.988,1.9931,1.9966,2.0007,2.0053,2.001,2.0012,2.0013,2.0138,2.013,2.0139,2.0067,2.0069,2.0071,2.013,0,1.9176,1.9302,1.935,1.9452,1.9518,1.9556,1.9616,1.968,1.9725,1.9786,1.9836,1.9907,1.9912,1.9942,1.9984,2.0038,2.0078,2.0035,2.0121,2.0123,2.0098,2.0151,2.0144,2.0197,2.0139,2.0141,2.0142,0,1.9262,1.9331,1.9439,1.9524,1.9553,1.9606,1.9685,1.9744,1.9817,1.9846,1.9901,1.9934,2.0006,1.9996,2.0096,2.0065,2.0103,2.0135,2.0138,2.0147,2.0134,2.0159,2.0216,2.0223,2.0156,2.0155,2.0154,0,1.9273,1.9393,1.9472,1.9509,1.961,1.9646,1.969,1.9762,1.9807,1.9876,1.9906,1.9982,2.0024,2.0082,2.0133,2.0121,2.0228,2.0222,2.0253,2.0252,2.0274,2.0271,2.0335,2.03,2.03,2.03,2.03,0,1.9333,1.9396,1.9477,1.9526,1.9598,1.9653,1.9723,1.977,1.9832,1.989,1.9928,1.9981,2.0047,2.0109,2.015,2.0225,2.0244,2.0269,2.0279,2.0265,2.0261,2.029,2.0287,2.0302,2.0302,2.0301,2.0301,0,1.9356,1.9413,1.9502,1.959,1.9613,1.9662,1.9738,1.9786,1.9831,1.9903,1.9923,1.9995,2.0069,2.0127,2.0223,2.0251,2.033,2.0342,2.0305,2.0309,2.0336,2.0332,2.042,2.0433,2.039,2.0391,2.0391,0,1.939,1.944,1.9532,1.9573,1.9617,1.9683,1.9729,1.9785,1.9831,1.9917,1.9954,2.003,2.0094,2.021,2.0271,2.0344,2.0357,2.0382,2.0368,2.0352,2.0355,2.0351,2.0355,2.0384,2.0384,2.0384,2.0384,0,1.9443,1.9468,1.9534,1.9608,1.9662,1.9724,1.9786,1.9817,1.9884,1.9935,2.001,2.0059,2.0157,2.0232,2.0311,2.0356,2.038,2.0388,2.0399,2.0384,2.036,2.0372,2.0307,2.0386,2.0385,2.0385,2.0385,2.0385,1.9472,1.9517,1.9588,1.9659,1.9712,1.9768,1.9817,1.9868,1.9932,2.0015,2.0044,2.0121,2.0191,2.03,2.0345,2.0406,2.0407,2.0423,2.0427,2.043,2.0427,2.0351,2.0421,2.0421,2.0421,2.0421,2.0421,0,1.9525,1.9573,1.9637,1.9722,1.9777,1.9796,1.9865,1.991,1.9977,2.004,2.0102,2.0187,2.0259,2.0325,2.04,2.0435,2.0448,2.0453,2.045,2.046,2.0423,2.0405,2.0441,2.0441,2.0441,2.0441,2.0441,2.0441,1.9559,1.9635,1.9669,1.9771,1.9818,1.9893,1.9931,1.9983,2.0033,2.0127,2.0187,2.0228,2.0292,2.0371,2.0438,2.0455,2.048,2.0482,2.0501,2.0465,2.0463,2.046,2.0444,2.0487,2.0487,2.0533,2.0534,2.0534]},{"header":{"parameterUnit":"m.s-1","parameterCategory":1,"la1":30.2991,"la2":30.254,"lo1":-89.0895,"lo2":-89.0444,"dy":0.0017,"dx":0.0017,"nx":28,"ny":28,"refTime":"2024-07-22T21:00:00:Z","depth":0,"parameterNumber":3,"parameterNumberName":"V-component_of_WINDS"},"data":[0,0,0,0,0,0,0,0,0,0,0,0,0,0,0,0,0,0,0,0,0,0,0,0,0,0,0,0,0,0,0,0,0,0,0,0,0,0,0,0,0,0,0,0,0,0,0,0,0,0,0,0,0,0,0,0,0,0,2.6682,2.6682,0,2.6642,2.6642,2.6641,2.661,2.661,2.6609,2.6609,2.6567,2.6566,2.6565,0,0,0,0,0,0,0,0,0,0,0,0,0,2.6728,2.6727,2.6682,2.6682,2.6681,2.6642,2.6642,2.6641,2.661,2.661,2.6609,2.6609,2.6567,2.6566,2.6565,0,0,0,0,0,0,0,0,0,0,0,0,0,2.67,2.6727,2.6682,2.6661,2.6659,2.6642,2.6642,2.6641,2.661,2.661,2.6609,2.6609,2.6568,2.6566,2.6565,2.6567,0,0,2.6561,2.6561,0,0,0,0,0,0,0,0,2.6702,2.6698,2.6665,2.6662,2.666,2.6631,2.6643,2.6616,2.661,2.6628,2.6609,2.6608,2.6589,2.6586,2.6579,2.6565,2.6563,2.6561,2.6561,2.656,2.656,0,0,0,0,0,0,0,2.6704,2.67,2.6666,2.6664,2.6661,2.6652,2.6648,2.6637,2.6612,2.6627,2.6624,2.662,2.6587,2.658,2.6578,2.6563,2.6561,2.656,2.656,2.6559,2.6544,2.6544,0,0,0,0,0,0,2.6709,2.6702,2.6668,2.6665,2.668,2.6652,2.6647,2.664,2.6612,2.6607,2.6621,2.6619,2.6583,2.6579,2.6576,2.6574,2.656,2.6559,2.6558,2.6544,2.6544,2.6545,0,0,0,0,0,0,2.671,2.6707,2.6669,2.6683,2.6677,2.6651,2.6645,2.664,2.6633,2.6607,2.6602,2.6619,2.6582,2.6578,2.6569,2.6572,2.6558,2.6557,2.6543,2.6544,2.6544,2.6571,0,0,0,0,0,0,2.6712,2.6707,2.6708,2.6683,2.6677,2.6664,2.6645,2.6639,2.6631,2.6628,2.6604,2.6599,2.6581,2.6571,2.6568,2.657,2.6556,2.6543,2.6544,2.6544,2.657,2.6573,2.6575,0,0,0,0,0,2.6714,2.6718,2.6709,2.6705,2.6678,2.6664,2.666,2.664,2.6632,2.6632,2.6614,2.66,2.6572,2.657,2.6566,2.6569,2.6543,2.6543,2.6544,2.6569,2.6572,2.6575,0,0,0,0,0,0,2.6745,2.6714,2.6704,2.67,2.6685,2.6659,2.6659,2.6645,2.6631,2.6629,2.6604,2.6599,2.6592,2.6579,2.6577,2.6567,2.6555,2.6555,2.6576,2.6579,2.6581,2.6584,2.6555,0,0,0,0,0,2.6751,2.6743,2.6717,2.6716,2.6709,2.6685,2.6678,2.6664,2.6647,2.664,2.6622,2.6605,2.6592,2.6585,2.6572,2.6568,2.6561,2.6567,2.657,2.6572,2.6572,2.6567,2.6569,2.6547,2.6547,2.6547,0,0,2.6765,2.6747,2.6744,2.6722,2.6708,2.6699,2.668,2.6672,2.6664,2.6639,2.6628,2.6614,2.6594,2.6587,2.6583,2.6576,2.6577,2.6573,2.6575,2.6574,2.6568,2.657,2.6572,2.6548,2.6548,2.6547,0,0,2.6784,2.6771,2.6768,2.6754,2.6733,2.6717,2.6716,2.6691,2.6681,2.667,2.665,2.664,2.662,2.6605,2.6595,2.6606,2.6591,2.6602,2.6615,2.661,2.6611,2.6613,2.6615,2.6616,2.6602,2.6602,2.6602,0,2.6803,2.679,2.6768,2.676,2.675,2.6726,2.6722,2.6709,2.6685,2.6678,2.6671,2.6643,2.6628,2.6615,2.6618,2.6611,2.6608,2.6605,2.6613,2.6614,2.6615,2.6617,2.6618,2.6604,2.6604,2.6603,2.6603,0,2.6813,2.6803,2.6803,2.678,2.677,2.6764,2.674,2.6733,2.6718,2.6702,2.669,2.667,2.6652,2.6648,2.6634,2.6633,2.6629,2.6618,2.6606,2.6619,2.662,2.6621,2.6606,2.6605,2.6605,2.6604,0,0,2.6852,2.6816,2.6816,2.6804,2.6778,2.677,2.6762,2.6743,2.6736,2.672,2.6711,2.6693,2.6681,2.667,2.6654,2.665,2.6657,2.6638,2.6638,2.6641,2.6651,2.6659,2.6661,2.6647,2.6647,2.6647,2.6652,0,2.6867,2.6852,2.6831,2.6822,2.6811,2.6787,2.6779,2.6762,2.6746,2.6734,2.6716,2.6703,2.669,2.6682,2.6676,2.6657,2.6658,2.6656,2.6637,2.6636,2.6642,2.6661,2.6671,2.6677,2.6653,2.6653,2.6653,0,2.6882,2.6866,2.6856,2.6829,2.6824,2.6818,2.6798,2.6787,2.6766,2.6754,2.674,2.6722,2.671,2.6699,2.6682,2.6681,2.6671,2.666,2.666,2.6657,2.6646,2.6658,2.6679,2.668,2.6654,2.6654,2.6654,0,2.691,2.6886,2.6876,2.6867,2.6836,2.6831,2.6818,2.6796,2.6785,2.6768,2.676,2.6741,2.6731,2.6716,2.6693,2.6687,2.6676,2.6664,2.6665,2.6666,2.6664,2.6665,2.6683,2.6659,2.6659,2.6659,2.6659,0,2.6927,2.6922,2.6888,2.6882,2.6875,2.685,2.6842,2.6826,2.6807,2.6796,2.6774,2.6764,2.6734,2.672,2.6702,2.6689,2.6684,2.6674,2.6669,2.6675,2.6677,2.6669,2.6667,2.666,2.666,2.6659,2.6659,0,2.6957,2.6935,2.6922,2.6893,2.6885,2.6881,2.6855,2.6847,2.6829,2.6815,2.6811,2.6782,2.6764,2.674,2.6715,2.6702,2.6691,2.6684,2.6698,2.6695,2.6697,2.6697,2.6711,2.6711,2.6688,2.6688,2.6689,0,2.697,2.6965,2.6934,2.6926,2.6913,2.69,2.6888,2.6863,2.6852,2.6825,2.682,2.6801,2.6784,2.6756,2.6733,2.6712,2.6704,2.671,2.6701,2.6707,2.6702,2.6703,2.6701,2.6712,2.6713,2.6713,2.6713,0,2.6994,2.6982,2.6968,2.6948,2.6935,2.6919,2.6901,2.6895,2.6865,2.6854,2.6835,2.6822,2.6795,2.6775,2.6752,2.6736,2.6719,2.6716,2.6715,2.6722,2.673,2.6724,2.6704,2.6716,2.6716,2.6715,2.6715,2.6715,2.7014,2.7008,2.6985,2.6969,2.6952,2.6936,2.6927,2.6907,2.6891,2.6868,2.6853,2.6835,2.6811,2.6777,2.6762,2.6746,2.674,2.6739,2.6738,2.6738,2.674,2.6732,2.6742,2.6742,2.6742,2.6742,2.6742,0,2.7036,2.702,2.7005,2.698,2.6967,2.6952,2.6931,2.692,2.6905,2.6884,2.6868,2.6845,2.6825,2.6799,2.6777,2.6769,2.676,2.6764,2.6764,2.676,2.6748,2.675,2.6771,2.6771,2.6771,2.6771,2.6771,2.6771,2.7046,2.7034,2.7019,2.6998,2.6981,2.6963,2.6952,2.6936,2.6919,2.6895,2.6879,2.6862,2.6838,2.6814,2.6794,2.6786,2.6779,2.6784,2.6775,2.6764,2.6761,2.6759,2.6761,2.6783,2.6783,2.6788,2.6788,2.6788]}]]